Time,TemperatureF,DewpointF,PressureIn,WindDirection,WindDirectionDegrees,WindSpeedMPH,WindSpeedGustMPH,Humidity,HourlyPrecipIn,Conditions,Clouds,dailyrainin,SoftwareType,DateUTC
2013-01-22 00:00:00,-16.4,-20.7,30.21,West,268,2.0,6.0,80,0.00,,SKC,0.00,VWS V14.01,2013-01-22 06:00:00,
2013-01-22 00:01:00,-15.8,-20.9,30.21,WNW,286,4.0,6.0,77,0.00,,SKC,0.00,VWS V14.01,2013-01-22 06:01:00,
2013-01-22 00:05:00,-16.5,-20.8,30.21,WSW,241,0.0,5.0,80,0.00,,SKC,0.00,VWS V14.01,2013-01-22 06:05:00,
2013-01-22 00:06:00,-15.9,-21.0,30.21,West,277,3.0,5.0,77,0.00,,SKC,0.00,VWS V14.01,2013-01-22 06:06:00,
2013-01-22 00:10:00,-16.5,-20.6,30.21,WSW,250,2.0,8.0,81,0.00,,SKC,0.00,VWS V14.01,2013-01-22 06:10:00,
2013-01-22 00:11:00,-16.0,-21.1,30.21,West,269,4.0,6.0,77,0.00,,SKC,0.00,VWS V14.01,2013-01-22 06:11:00,
2013-01-22 00:15:00,-16.5,-20.6,30.21,WSW,255,4.0,10.0,81,0.00,,SKC,0.00,VWS V14.01,2013-01-22 06:15:00,
2013-01-22 00:16:00,-16.0,-21.1,30.21,West,259,5.0,10.0,77,0.00,,SKC,0.00,VWS V14.01,2013-01-22 06:16:00,
2013-01-22 00:20:00,-16.4,-20.5,30.21,WNW,290,7.0,10.0,81,0.00,,SKC,0.00,VWS V14.01,2013-01-22 06:20:00,
2013-01-22 00:21:00,-16.1,-20.9,30.21,West,277,3.0,7.0,78,0.00,,SKC,0.00,VWS V14.01,2013-01-22 06:21:00,
2013-01-22 00:25:00,-16.3,-20.4,30.21,West,273,2.0,7.0,81,0.00,,SKC,0.00,VWS V14.01,2013-01-22 06:25:00,
2013-01-22 00:26:00,-16.1,-20.9,30.21,SW,236,2.0,7.0,78,0.00,,SKC,0.00,VWS V14.01,2013-01-22 06:26:00,
2013-01-22 00:30:00,-16.4,-20.7,30.22,West,281,3.0,9.0,80,0.00,,SKC,0.00,VWS V14.01,2013-01-22 06:30:00,
2013-01-22 00:31:00,-16.2,-21.0,30.21,WNW,293,4.0,8.0,78,0.00,,SKC,0.00,VWS V14.01,2013-01-22 06:31:00,
2013-01-22 00:35:00,-16.4,-20.7,30.22,West,261,3.0,10.0,80,0.00,,SKC,0.00,VWS V14.01,2013-01-22 06:35:00,
2013-01-22 00:36:00,-16.3,-21.1,30.21,WSW,250,2.0,5.0,78,0.00,,SKC,0.00,VWS V14.01,2013-01-22 06:36:00,
2013-01-22 00:41:00,-16.4,-21.2,30.21,WNW,285,3.0,7.0,78,0.00,,SKC,0.00,VWS V14.01,2013-01-22 06:41:00,
2013-01-22 00:45:00,-16.4,-20.7,30.22,WNW,285,6.0,9.0,80,0.00,,SKC,0.00,VWS V14.01,2013-01-22 06:45:00,
2013-01-22 00:46:00,-16.4,-21.2,30.21,West,266,2.0,6.0,78,0.00,,SKC,0.00,VWS V14.01,2013-01-22 06:46:00,
2013-01-22 00:50:00,-16.4,-21.0,30.22,WNW,292,5.0,6.0,79,0.00,,SKC,0.00,VWS V14.01,2013-01-22 06:50:00,
2013-01-22 00:51:00,-16.4,-21.0,30.21,WNW,288,8.0,8.0,79,0.00,,SKC,0.00,VWS V14.01,2013-01-22 06:51:00,
2013-01-22 00:56:00,-16.4,-21.0,30.21,SW,214,3.0,8.0,79,0.00,,SKC,0.00,VWS V14.01,2013-01-22 06:56:00,
2013-01-22 01:00:00,-16.6,-21.2,30.22,West,280,3.0,5.0,79,0.00,,SKC,0.00,VWS V14.01,2013-01-22 07:00:00,
2013-01-22 01:01:00,-16.4,-20.7,30.21,WSW,248,3.0,6.0,80,0.00,,SKC,0.00,VWS V14.01,2013-01-22 07:01:00,
2013-01-22 01:06:00,-16.4,-20.7,30.21,West,280,4.0,5.0,80,0.00,,SKC,0.00,VWS V14.01,2013-01-22 07:06:00,
2013-01-22 01:10:00,-16.7,-21.2,30.22,WNW,283,4.0,6.0,79,0.00,,SKC,0.00,VWS V14.01,2013-01-22 07:10:00,
2013-01-22 01:11:00,-16.5,-20.6,30.21,West,264,1.0,8.0,81,0.00,,SKC,0.00,VWS V14.01,2013-01-22 07:11:00,
2013-01-22 01:16:00,-16.5,-20.6,30.21,West,281,4.0,10.0,81,0.00,,SKC,0.00,VWS V14.01,2013-01-22 07:16:00,
2013-01-22 01:20:00,-16.7,-21.2,30.23,West,261,2.0,6.0,79,0.00,,SKC,0.00,VWS V14.01,2013-01-22 07:20:00,
2013-01-22 01:21:00,-16.4,-20.5,30.21,WNW,292,8.0,10.0,81,0.00,,SKC,0.00,VWS V14.01,2013-01-22 07:21:00,
2013-01-22 01:25:00,-16.8,-21.4,30.23,West,281,1.0,7.0,79,0.00,,SKC,0.00,VWS V14.01,2013-01-22 07:25:00,
2013-01-22 01:26:00,-16.4,-20.5,30.21,WNW,288,3.0,7.0,81,0.00,,SKC,0.00,VWS V14.01,2013-01-22 07:26:00,
2013-01-22 01:30:00,-16.9,-21.5,30.24,West,268,2.0,4.0,79,0.00,,SKC,0.00,VWS V14.01,2013-01-22 07:30:00,
2013-01-22 01:31:00,-16.4,-20.7,30.22,WSW,257,2.0,9.0,80,0.00,,SKC,0.00,VWS V14.01,2013-01-22 07:31:00,
2013-01-22 01:35:00,-16.9,-21.5,30.24,WNW,284,4.0,6.0,79,0.00,,SKC,0.00,VWS V14.01,2013-01-22 07:35:00,
2013-01-22 01:36:00,-16.4,-20.7,30.22,WNW,293,2.0,10.0,80,0.00,,SKC,0.00,VWS V14.01,2013-01-22 07:36:00,
2013-01-22 01:40:00,-16.9,-21.5,30.24,WSW,256,1.0,5.0,79,0.00,,SKC,0.00,VWS V14.01,2013-01-22 07:40:00,
2013-01-22 01:41:00,-16.3,-20.6,30.22,WNW,285,3.0,9.0,80,0.00,,SKC,0.00,VWS V14.01,2013-01-22 07:41:00,
2013-01-22 01:45:00,-16.9,-21.5,30.24,West,267,2.0,5.0,79,0.00,,SKC,0.00,VWS V14.01,2013-01-22 07:45:00,
2013-01-22 01:46:00,-16.4,-20.7,30.22,WNW,291,7.0,9.0,80,0.00,,SKC,0.00,VWS V14.01,2013-01-22 07:46:00,
2013-01-22 01:50:00,-16.9,-21.5,30.24,WNW,294,2.0,6.0,79,0.00,,SKC,0.00,VWS V14.01,2013-01-22 07:50:00,
2013-01-22 01:51:00,-16.5,-21.1,30.22,WNW,284,4.0,6.0,79,0.00,,SKC,0.00,VWS V14.01,2013-01-22 07:51:00,
2013-01-22 01:55:00,-16.9,-21.5,30.24,West,263,3.0,6.0,79,0.00,,SKC,0.00,VWS V14.01,2013-01-22 07:55:00,
2013-01-22 01:57:00,-16.5,-21.1,30.22,West,278,2.0,5.0,79,0.00,,SKC,0.00,VWS V14.01,2013-01-22 07:57:00,
2013-01-22 02:00:00,-17.0,-21.3,30.24,West,277,4.0,7.0,80,0.00,,SKC,0.00,VWS V14.01,2013-01-22 08:00:00,
2013-01-22 02:02:00,-16.6,-21.2,30.22,West,263,2.0,5.0,79,0.00,,SKC,0.00,VWS V14.01,2013-01-22 08:02:00,
2013-01-22 02:05:00,-17.0,-21.5,30.24,West,277,3.0,5.0,79,0.00,,SKC,0.00,VWS V14.01,2013-01-22 08:05:00,
2013-01-22 02:07:00,-16.6,-21.2,30.22,West,265,1.0,5.0,79,0.00,,SKC,0.00,VWS V14.01,2013-01-22 08:07:00,
2013-01-22 02:10:00,-17.1,-21.6,30.24,WNW,285,2.0,5.0,79,0.00,,SKC,0.00,VWS V14.01,2013-01-22 08:10:00,
2013-01-22 02:12:00,-16.6,-21.2,30.22,West,276,3.0,6.0,79,0.00,,SKC,0.00,VWS V14.01,2013-01-22 08:12:00,
2013-01-22 02:15:00,-17.2,-21.7,30.24,West,276,1.0,4.0,79,0.00,,SKC,0.00,VWS V14.01,2013-01-22 08:15:00,
2013-01-22 02:17:00,-16.6,-21.2,30.23,WNW,289,4.0,9.0,79,0.00,,SKC,0.00,VWS V14.01,2013-01-22 08:17:00,
2013-01-22 02:20:00,-17.2,-21.5,30.24,West,264,3.0,6.0,80,0.00,,SKC,0.00,VWS V14.01,2013-01-22 08:20:00,
2013-01-22 02:22:00,-16.7,-21.2,30.23,West,264,2.0,6.0,79,0.00,,SKC,0.00,VWS V14.01,2013-01-22 08:22:00,
2013-01-22 02:25:00,-17.2,-21.5,30.24,WSW,242,1.0,4.0,80,0.00,,SKC,0.00,VWS V14.01,2013-01-22 08:25:00,
2013-01-22 02:27:00,-16.8,-21.4,30.23,WNW,293,2.0,7.0,79,0.00,,SKC,0.00,VWS V14.01,2013-01-22 08:27:00,
2013-01-22 02:30:00,-17.3,-21.6,30.24,West,261,3.0,3.0,80,0.00,,SKC,0.00,VWS V14.01,2013-01-22 08:30:00,
2013-01-22 02:32:00,-16.9,-21.5,30.24,WSW,245,2.0,4.0,79,0.00,,SKC,0.00,VWS V14.01,2013-01-22 08:32:00,
2013-01-22 02:35:00,-17.3,-21.6,30.24,WNW,298,3.0,3.0,80,0.00,,SKC,0.00,VWS V14.01,2013-01-22 08:35:00,
2013-01-22 02:37:00,-16.9,-21.5,30.24,West,265,3.0,6.0,79,0.00,,SKC,0.00,VWS V14.01,2013-01-22 08:37:00,
2013-01-22 02:40:00,-17.4,-21.7,30.24,WSW,248,2.0,5.0,80,0.00,,SKC,0.00,VWS V14.01,2013-01-22 08:40:00,
2013-01-22 02:42:00,-16.9,-21.5,30.24,WNW,294,2.0,5.0,79,0.00,,SKC,0.00,VWS V14.01,2013-01-22 08:42:00,
2013-01-22 02:45:00,-17.4,-21.7,30.24,West,269,2.0,6.0,80,0.00,,SKC,0.00,VWS V14.01,2013-01-22 08:45:00,
2013-01-22 02:47:00,-17.0,-21.5,30.24,West,271,2.0,5.0,79,0.00,,SKC,0.00,VWS V14.01,2013-01-22 08:47:00,
2013-01-22 02:50:00,-17.4,-21.7,30.24,WNW,287,4.0,7.0,80,0.00,,SKC,0.00,VWS V14.01,2013-01-22 08:50:00,
2013-01-22 02:52:00,-16.9,-21.5,30.24,West,268,3.0,6.0,79,0.00,,SKC,0.00,VWS V14.01,2013-01-22 08:52:00,
2013-01-22 02:55:00,-17.4,-21.7,30.24,West,263,1.0,4.0,80,0.00,,SKC,0.00,VWS V14.01,2013-01-22 08:55:00,
2013-01-22 02:57:00,-16.9,-21.5,30.24,West,259,3.0,6.0,79,0.00,,SKC,0.00,VWS V14.01,2013-01-22 08:57:00,
2013-01-22 03:00:00,-17.5,-21.8,30.25,West,271,2.0,5.0,80,0.00,,SKC,0.00,VWS V14.01,2013-01-22 09:00:00,
2013-01-22 03:02:00,-16.9,-21.5,30.24,WNW,300,5.0,7.0,79,0.00,,SKC,0.00,VWS V14.01,2013-01-22 09:02:00,
2013-01-22 03:05:00,-17.4,-21.7,30.25,WNW,288,2.0,7.0,80,0.00,,SKC,0.00,VWS V14.01,2013-01-22 09:05:00,
2013-01-22 03:07:00,-17.0,-21.5,30.24,WNW,284,3.0,5.0,79,0.00,,SKC,0.00,VWS V14.01,2013-01-22 09:07:00,
2013-01-22 03:10:00,-17.3,-21.4,30.25,West,263,5.0,7.0,81,0.00,,SKC,0.00,VWS V14.01,2013-01-22 09:10:00,
2013-01-22 03:12:00,-17.1,-21.6,30.24,West,265,1.0,5.0,79,0.00,,SKC,0.00,VWS V14.01,2013-01-22 09:12:00,
2013-01-22 03:15:00,-17.4,-21.5,30.25,WSW,249,2.0,8.0,81,0.00,,SKC,0.00,VWS V14.01,2013-01-22 09:15:00,
2013-01-22 03:17:00,-17.2,-21.7,30.24,WSW,242,2.0,4.0,79,0.00,,SKC,0.00,VWS V14.01,2013-01-22 09:17:00,
2013-01-22 03:20:00,-17.3,-21.4,30.25,West,259,0.0,7.0,81,0.00,,SKC,0.00,VWS V14.01,2013-01-22 09:20:00,
2013-01-22 03:22:00,-17.2,-21.5,30.24,West,276,2.0,6.0,80,0.00,,SKC,0.00,VWS V14.01,2013-01-22 09:22:00,
2013-01-22 03:25:00,-17.5,-21.6,30.25,West,277,2.0,5.0,81,0.00,,SKC,0.00,VWS V14.01,2013-01-22 09:25:00,
2013-01-22 03:27:00,-17.2,-21.5,30.24,WSW,257,1.0,4.0,80,0.00,,SKC,0.00,VWS V14.01,2013-01-22 09:27:00,
2013-01-22 03:30:00,-17.5,-21.6,30.25,West,269,1.0,6.0,81,0.00,,SKC,0.00,VWS V14.01,2013-01-22 09:30:00,
2013-01-22 03:32:00,-17.3,-21.6,30.24,West,260,3.0,3.0,80,0.00,,SKC,0.00,VWS V14.01,2013-01-22 09:32:00,
2013-01-22 03:35:00,-17.6,-21.7,30.25,WSW,254,1.0,5.0,81,0.00,,SKC,0.00,VWS V14.01,2013-01-22 09:35:00,
2013-01-22 03:37:00,-17.3,-21.6,30.24,West,281,2.0,3.0,80,0.00,,SKC,0.00,VWS V14.01,2013-01-22 09:37:00,
2013-01-22 03:40:00,-17.7,-21.8,30.25,WNW,283,3.0,3.0,81,0.00,,SKC,0.00,VWS V14.01,2013-01-22 09:40:00,
2013-01-22 03:42:00,-17.4,-21.7,30.24,West,261,2.0,5.0,80,0.00,,SKC,0.00,VWS V14.01,2013-01-22 09:42:00,
2013-01-22 03:45:00,-17.7,-21.8,30.25,West,281,3.0,4.0,81,0.00,,SKC,0.00,VWS V14.01,2013-01-22 09:45:00,
2013-01-22 03:47:00,-17.4,-21.7,30.24,West,277,2.0,6.0,80,0.00,,SKC,0.00,VWS V14.01,2013-01-22 09:47:00,
2013-01-22 03:52:00,-17.4,-21.7,30.24,WNW,286,4.0,7.0,80,0.00,,SKC,0.00,VWS V14.01,2013-01-22 09:52:00,
2013-01-22 03:55:00,-17.6,-21.7,30.25,WSW,258,1.0,4.0,81,0.00,,SKC,0.00,VWS V14.01,2013-01-22 09:55:00,
2013-01-22 03:57:00,-17.4,-21.7,30.24,West,263,1.0,4.0,80,0.00,,SKC,0.00,VWS V14.01,2013-01-22 09:57:00,
2013-01-22 04:00:00,-17.7,-22.0,30.25,NW,308,3.0,3.0,80,0.00,,SKC,0.00,VWS V14.01,2013-01-22 10:00:00,
2013-01-22 04:02:00,-17.5,-21.8,30.25,West,271,2.0,5.0,80,0.00,,SKC,0.00,VWS V14.01,2013-01-22 10:02:00,
2013-01-22 04:05:00,-17.8,-22.1,30.25,WNW,285,2.0,3.0,80,0.00,,SKC,0.00,VWS V14.01,2013-01-22 10:05:00,
2013-01-22 04:07:00,-17.4,-21.7,30.25,West,266,2.0,7.0,80,0.00,,SKC,0.00,VWS V14.01,2013-01-22 10:07:00,
2013-01-22 04:10:00,-17.8,-22.1,30.25,WNW,283,3.0,4.0,80,0.00,,SKC,0.00,VWS V14.01,2013-01-22 10:10:00,
2013-01-22 04:12:00,-17.3,-21.4,30.25,West,263,5.0,7.0,81,0.00,,SKC,0.00,VWS V14.01,2013-01-22 10:12:00,
2013-01-22 04:15:00,-17.9,-22.2,30.26,WSW,255,4.0,6.0,80,0.00,,SKC,0.00,VWS V14.01,2013-01-22 10:15:00,
2013-01-22 04:17:00,-17.4,-21.5,30.25,WSW,248,2.0,8.0,81,0.00,,SKC,0.00,VWS V14.01,2013-01-22 10:17:00,
2013-01-22 04:20:00,-17.9,-22.2,30.26,WSW,245,0.0,4.0,80,0.00,,SKC,0.00,VWS V14.01,2013-01-22 10:20:00,
2013-01-22 04:22:00,-17.3,-21.4,30.25,West,259,0.0,7.0,81,0.00,,SKC,0.00,VWS V14.01,2013-01-22 10:22:00,
2013-01-22 04:25:00,-17.9,-22.2,30.26,WNW,285,2.0,6.0,80,0.00,,SKC,0.00,VWS V14.01,2013-01-22 10:25:00,
2013-01-22 04:27:00,-17.5,-21.6,30.25,West,277,2.0,5.0,81,0.00,,SKC,0.00,VWS V14.01,2013-01-22 10:27:00,
2013-01-22 04:30:00,-18.0,-22.3,30.26,WSW,252,2.0,7.0,80,0.00,,SKC,0.00,VWS V14.01,2013-01-22 10:30:00,
2013-01-22 04:32:00,-17.5,-21.6,30.25,West,269,1.0,6.0,81,0.00,,SKC,0.00,VWS V14.01,2013-01-22 10:32:00,
2013-01-22 04:35:00,-18.0,-22.3,30.26,WNW,288,5.0,6.0,80,0.00,,SKC,0.00,VWS V14.01,2013-01-22 10:35:00,
2013-01-22 04:37:00,-17.6,-21.7,30.25,WSW,254,1.0,5.0,81,0.00,,SKC,0.00,VWS V14.01,2013-01-22 10:37:00,
2013-01-22 04:40:00,-18.0,-22.3,30.26,WSW,242,2.0,5.0,80,0.00,,SKC,0.00,VWS V14.01,2013-01-22 10:40:00,
2013-01-22 04:42:00,-17.7,-21.8,30.25,WNW,283,3.0,3.0,81,0.00,,SKC,0.00,VWS V14.01,2013-01-22 10:42:00,
2013-01-22 04:45:00,-18.1,-22.4,30.26,WSW,255,4.0,5.0,80,0.00,,SKC,0.00,VWS V14.01,2013-01-22 10:45:00,
2013-01-22 04:47:00,-17.7,-22.0,30.25,WNW,290,4.0,4.0,80,0.00,,SKC,0.00,VWS V14.01,2013-01-22 10:47:00,
2013-01-22 04:52:00,-17.6,-21.7,30.25,West,271,3.0,6.0,81,0.00,,SKC,0.00,VWS V14.01,2013-01-22 10:52:00,
2013-01-22 04:55:00,-18.2,-22.5,30.26,WNW,288,3.0,5.0,80,0.00,,SKC,0.00,VWS V14.01,2013-01-22 10:55:00,
2013-01-22 04:57:00,-17.6,-21.7,30.25,WSW,258,1.0,4.0,81,0.00,,SKC,0.00,VWS V14.01,2013-01-22 10:57:00,
2013-01-22 05:00:00,-18.3,-22.6,30.27,WNW,296,6.0,6.0,80,0.00,,SKC,0.00,VWS V14.01,2013-01-22 11:00:00,
2013-01-22 05:02:00,-17.7,-22.0,30.25,NW,308,3.0,3.0,80,0.00,,SKC,0.00,VWS V14.01,2013-01-22 11:02:00,
2013-01-22 05:05:00,-18.3,-22.6,30.27,West,261,2.0,8.0,80,0.00,,SKC,0.00,VWS V14.01,2013-01-22 11:05:00,
2013-01-22 05:07:00,-17.8,-22.1,30.25,WNW,286,2.0,2.0,80,0.00,,SKC,0.00,VWS V14.01,2013-01-22 11:07:00,
2013-01-22 05:10:00,-18.3,-22.6,30.27,WNW,290,2.0,8.0,80,0.00,,SKC,0.00,VWS V14.01,2013-01-22 11:10:00,
2013-01-22 05:12:00,-17.8,-22.1,30.25,West,268,2.0,3.0,80,0.00,,SKC,0.00,VWS V14.01,2013-01-22 11:12:00,
2013-01-22 05:15:00,-18.3,-22.6,30.27,West,276,3.0,4.0,80,0.00,,SKC,0.00,VWS V14.01,2013-01-22 11:15:00,
2013-01-22 05:17:00,-17.9,-22.2,30.26,WSW,255,4.0,6.0,80,0.00,,SKC,0.00,VWS V14.01,2013-01-22 11:17:00,
2013-01-22 05:20:00,-18.2,-22.5,30.27,West,276,1.0,7.0,80,0.00,,SKC,0.00,VWS V14.01,2013-01-22 11:20:00,
2013-01-22 05:22:00,-17.9,-22.2,30.26,WSW,240,0.0,1.0,80,0.00,,SKC,0.00,VWS V14.01,2013-01-22 11:22:00,
2013-01-22 05:25:00,-18.3,-22.6,30.27,WNW,284,1.0,5.0,80,0.00,,SKC,0.00,VWS V14.01,2013-01-22 11:25:00,
2013-01-22 05:27:00,-17.9,-22.2,30.26,WNW,288,4.0,4.0,80,0.00,,SKC,0.00,VWS V14.01,2013-01-22 11:27:00,
2013-01-22 05:30:00,-18.3,-22.6,30.27,West,268,1.0,5.0,80,0.00,,SKC,0.00,VWS V14.01,2013-01-22 11:30:00,
2013-01-22 05:32:00,-18.0,-22.3,30.26,West,259,3.0,3.0,80,0.00,,SKC,0.00,VWS V14.01,2013-01-22 11:32:00,
2013-01-22 05:35:00,-18.3,-22.6,30.27,West,276,2.0,4.0,80,0.00,,SKC,0.00,VWS V14.01,2013-01-22 11:35:00,
2013-01-22 05:37:00,-18.0,-22.3,30.26,WNW,291,4.0,5.0,80,0.00,,SKC,0.00,VWS V14.01,2013-01-22 11:37:00,
2013-01-22 05:40:00,-18.4,-22.7,30.27,WNW,290,2.0,5.0,80,0.00,,SKC,0.00,VWS V14.01,2013-01-22 11:40:00,
2013-01-22 05:42:00,-18.1,-22.4,30.26,WNW,284,2.0,4.0,80,0.00,,SKC,0.00,VWS V14.01,2013-01-22 11:42:00,
2013-01-22 05:45:00,-18.5,-22.8,30.27,WNW,285,3.0,4.0,80,0.00,,SKC,0.00,VWS V14.01,2013-01-22 11:45:00,
2013-01-22 05:47:00,-18.1,-22.4,30.26,West,261,4.0,5.0,80,0.00,,SKC,0.00,VWS V14.01,2013-01-22 11:47:00,
2013-01-22 05:50:00,-18.4,-22.7,30.27,WNW,290,8.0,8.0,80,0.00,,SKC,0.00,VWS V14.01,2013-01-22 11:50:00,
2013-01-22 05:52:00,-18.2,-22.5,30.26,WSW,252,2.0,3.0,80,0.00,,SKC,0.00,VWS V14.01,2013-01-22 11:52:00,
2013-01-22 05:55:00,-18.4,-22.7,30.27,West,268,2.0,8.0,80,0.00,,SKC,0.00,VWS V14.01,2013-01-22 11:55:00,
2013-01-22 05:57:00,-18.2,-22.5,30.26,WSW,250,3.0,3.0,80,0.00,,SKC,0.00,VWS V14.01,2013-01-22 11:57:00,
2013-01-22 06:00:00,-18.4,-22.7,30.28,West,271,2.0,6.0,80,0.00,,SKC,0.00,VWS V14.01,2013-01-22 12:00:00,
2013-01-22 06:02:00,-18.3,-22.6,30.27,West,261,4.0,8.0,80,0.00,,SKC,0.00,VWS V14.01,2013-01-22 12:02:00,
2013-01-22 06:05:00,-18.4,-22.7,30.28,WNW,284,5.0,11.0,80,0.00,,SKC,0.00,VWS V14.01,2013-01-22 12:05:00,
2013-01-22 06:08:00,-18.3,-22.6,30.27,West,271,4.0,6.0,80,0.00,,SKC,0.00,VWS V14.01,2013-01-22 12:08:00,
2013-01-22 06:10:00,-18.4,-22.7,30.28,WNW,292,6.0,6.0,80,0.00,,SKC,0.00,VWS V14.01,2013-01-22 12:10:00,
2013-01-22 06:13:00,-18.3,-22.6,30.27,West,281,4.0,4.0,80,0.00,,SKC,0.00,VWS V14.01,2013-01-22 12:13:00,
2013-01-22 06:15:00,-18.4,-22.7,30.28,West,276,4.0,6.0,80,0.00,,SKC,0.00,VWS V14.01,2013-01-22 12:15:00,
2013-01-22 06:18:00,-18.3,-22.6,30.27,West,269,1.0,3.0,80,0.00,,SKC,0.00,VWS V14.01,2013-01-22 12:18:00,
2013-01-22 06:20:00,-18.5,-22.8,30.28,WNW,291,4.0,6.0,80,0.00,,SKC,0.00,VWS V14.01,2013-01-22 12:20:00,
2013-01-22 06:23:00,-18.2,-22.5,30.27,West,261,2.0,2.0,80,0.00,,SKC,0.00,VWS V14.01,2013-01-22 12:23:00,
2013-01-22 06:25:00,-18.5,-22.8,30.28,West,265,3.0,6.0,80,0.00,,SKC,0.00,VWS V14.01,2013-01-22 12:25:00,
2013-01-22 06:28:00,-18.2,-22.5,30.27,West,265,1.0,2.0,80,0.00,,SKC,0.00,VWS V14.01,2013-01-22 12:28:00,
2013-01-22 06:30:00,-18.6,-23.1,30.29,West,260,1.0,6.0,79,0.00,,SKC,0.00,VWS V14.01,2013-01-22 12:30:00,
2013-01-22 06:33:00,-18.3,-22.6,30.27,WNW,285,4.0,4.0,80,0.00,,SKC,0.00,VWS V14.01,2013-01-22 12:33:00,
2013-01-22 06:35:00,-18.6,-23.1,30.29,WNW,285,4.0,6.0,79,0.00,,SKC,0.00,VWS V14.01,2013-01-22 12:35:00,
2013-01-22 06:38:00,-18.4,-22.7,30.27,WNW,291,3.0,3.0,80,0.00,,SKC,0.00,VWS V14.01,2013-01-22 12:38:00,
2013-01-22 06:40:00,-18.7,-23.2,30.29,West,279,2.0,4.0,79,0.00,,SKC,0.00,VWS V14.01,2013-01-22 12:40:00,
2013-01-22 06:43:00,-18.4,-22.7,30.27,WNW,290,2.0,2.0,80,0.00,,SKC,0.00,VWS V14.01,2013-01-22 12:43:00,
2013-01-22 06:45:00,-18.7,-23.2,30.29,West,281,0.0,5.0,79,0.00,,SKC,0.00,VWS V14.01,2013-01-22 12:45:00,
2013-01-22 06:48:00,-18.5,-22.8,30.27,WSW,251,4.0,5.0,80,0.00,,SKC,0.00,VWS V14.01,2013-01-22 12:48:00,
2013-01-22 06:50:00,-18.7,-23.2,30.29,WNW,292,2.0,6.0,79,0.00,,SKC,0.00,VWS V14.01,2013-01-22 12:50:00,
2013-01-22 06:53:00,-18.4,-22.7,30.27,West,269,2.0,8.0,80,0.00,,SKC,0.00,VWS V14.01,2013-01-22 12:53:00,
2013-01-22 06:55:00,-18.7,-23.2,30.29,WNW,286,0.0,3.0,79,0.00,,SKC,0.00,VWS V14.01,2013-01-22 12:55:00,
2013-01-22 06:58:00,-18.4,-22.7,30.27,WNW,285,3.0,5.0,80,0.00,,SKC,0.00,VWS V14.01,2013-01-22 12:58:00,
2013-01-22 07:00:00,-18.7,-23.2,30.29,West,263,1.0,5.0,79,0.00,,SKC,0.00,VWS V14.01,2013-01-22 13:00:00,
2013-01-22 07:03:00,-18.4,-22.7,30.28,West,268,2.0,3.0,80,0.00,,SKC,0.00,VWS V14.01,2013-01-22 13:03:00,
2013-01-22 07:05:00,-18.7,-23.2,30.29,WNW,284,2.0,5.0,79,0.00,,SKC,0.00,VWS V14.01,2013-01-22 13:05:00,
2013-01-22 07:08:00,-18.4,-22.7,30.28,WNW,291,6.0,6.0,80,0.00,,SKC,0.00,VWS V14.01,2013-01-22 13:08:00,
2013-01-22 07:10:00,-18.6,-23.1,30.29,West,276,1.0,4.0,79,0.00,,SKC,0.00,VWS V14.01,2013-01-22 13:10:00,
2013-01-22 07:13:00,-18.4,-22.7,30.28,WNW,286,4.0,6.0,80,0.00,,SKC,0.00,VWS V14.01,2013-01-22 13:13:00,
2013-01-22 07:18:00,-18.4,-22.7,30.28,WNW,284,3.0,5.0,80,0.00,,SKC,0.00,VWS V14.01,2013-01-22 13:18:00,
2013-01-22 07:20:00,-18.4,-22.9,30.29,West,269,2.0,6.0,79,0.00,,SKC,0.00,VWS V14.01,2013-01-22 13:20:00,
2013-01-22 07:23:00,-18.4,-22.7,30.28,West,264,4.0,5.0,80,0.00,,SKC,0.00,VWS V14.01,2013-01-22 13:23:00,
2013-01-22 07:25:00,-18.2,-22.7,30.29,WNW,290,2.0,3.0,79,0.00,,SKC,0.00,VWS V14.01,2013-01-22 13:25:00,
2013-01-22 07:28:00,-18.5,-22.8,30.28,West,279,2.0,5.0,80,0.00,,SKC,0.00,VWS V14.01,2013-01-22 13:28:00,
2013-01-22 07:33:00,-18.6,-23.1,30.29,West,263,1.0,2.0,79,0.00,,SKC,0.00,VWS V14.01,2013-01-22 13:33:00,
2013-01-22 07:35:00,-17.8,-22.3,30.29,West,265,3.0,4.0,79,0.00,,SKC,0.00,VWS V14.01,2013-01-22 13:35:00,
2013-01-22 07:38:00,-18.6,-23.1,30.29,WNW,284,3.0,4.0,79,0.00,,SKC,0.00,VWS V14.01,2013-01-22 13:38:00,
2013-01-22 07:40:00,-17.5,-22.0,30.29,West,280,1.0,7.0,79,0.00,,SKC,0.00,VWS V14.01,2013-01-22 13:40:00,
2013-01-22 07:43:00,-18.7,-23.2,30.29,West,259,3.0,5.0,79,0.00,,SKC,0.00,VWS V14.01,2013-01-22 13:43:00,
2013-01-22 07:45:00,-17.2,-21.7,30.30,West,267,1.0,4.0,79,0.00,,SKC,0.00,VWS V14.01,2013-01-22 13:45:00,
2013-01-22 07:48:00,-18.7,-23.2,30.29,WNW,283,1.0,3.0,79,0.00,,SKC,0.00,VWS V14.01,2013-01-22 13:48:00,
2013-01-22 07:50:00,-16.6,-21.2,30.30,WSW,253,0.0,2.0,79,0.00,,SKC,0.00,VWS V14.01,2013-01-22 13:50:00,
2013-01-22 07:53:00,-18.7,-23.2,30.29,WSW,250,2.0,3.0,79,0.00,,SKC,0.00,VWS V14.01,2013-01-22 13:53:00,
2013-01-22 07:55:00,-16.4,-21.2,30.30,WNW,288,1.0,2.0,78,0.00,,SKC,0.00,VWS V14.01,2013-01-22 13:55:00,
2013-01-22 07:58:00,-18.7,-23.2,30.29,West,269,2.0,5.0,79,0.00,,SKC,0.00,VWS V14.01,2013-01-22 13:58:00,
2013-01-22 08:00:00,-16.1,-20.9,30.29,WNW,284,2.0,3.0,78,0.00,,SKC,0.00,VWS V14.01,2013-01-22 14:00:00,
2013-01-22 08:03:00,-18.7,-23.2,30.29,West,278,2.0,3.0,79,0.00,,SKC,0.00,VWS V14.01,2013-01-22 14:03:00,
2013-01-22 08:05:00,-15.7,-20.8,30.29,West,281,4.0,4.0,77,0.00,,SKC,0.00,VWS V14.01,2013-01-22 14:05:00,
2013-01-22 08:08:00,-18.6,-23.1,30.29,West,266,1.0,4.0,79,0.00,,SKC,0.00,VWS V14.01,2013-01-22 14:08:00,
2013-01-22 08:13:00,-18.6,-23.1,30.29,West,279,1.0,3.0,79,0.00,,SKC,0.00,VWS V14.01,2013-01-22 14:13:00,
2013-01-22 08:15:00,-15.0,-20.1,30.30,WSW,248,0.0,2.0,77,0.00,,SKC,0.00,VWS V14.01,2013-01-22 14:15:00,
2013-01-22 08:18:00,-18.4,-22.9,30.29,WNW,286,2.0,4.0,79,0.00,,SKC,0.00,VWS V14.01,2013-01-22 14:18:00,
2013-01-22 08:20:00,-14.7,-19.8,30.30,WNW,291,1.0,4.0,77,0.00,,SKC,0.00,VWS V14.01,2013-01-22 14:20:00,
2013-01-22 08:23:00,-18.3,-22.8,30.29,WNW,286,2.0,3.0,79,0.00,,SKC,0.00,VWS V14.01,2013-01-22 14:23:00,
2013-01-22 08:25:00,-14.3,-19.4,30.30,WSW,250,5.0,5.0,77,0.00,,SKC,0.00,VWS V14.01,2013-01-22 14:25:00,
2013-01-22 08:28:00,-18.1,-22.6,30.29,WNW,288,3.0,4.0,79,0.00,,SKC,0.00,VWS V14.01,2013-01-22 14:28:00,
2013-01-22 08:30:00,-14.1,-19.7,30.31,West,263,3.0,5.0,75,0.00,,SKC,0.00,VWS V14.01,2013-01-22 14:30:00,
2013-01-22 08:33:00,-18.0,-22.5,30.29,West,272,0.0,1.0,79,0.00,,SKC,0.00,VWS V14.01,2013-01-22 14:33:00,
2013-01-22 08:39:00,-17.7,-22.2,30.29,WNW,288,6.0,6.0,79,0.00,,SKC,0.00,VWS V14.01,2013-01-22 14:39:00,
2013-01-22 08:43:00,-17.4,-21.9,30.29,West,275,2.0,4.0,79,0.00,,SKC,0.00,VWS V14.01,2013-01-22 14:43:00,
2013-01-22 08:45:00,-13.4,-19.0,30.31,WNW,286,4.0,4.0,75,0.00,,SKC,0.00,VWS V14.01,2013-01-22 14:45:00,
2013-01-22 08:48:00,-17.1,-21.6,30.30,WSW,251,1.0,1.0,79,0.00,,SKC,0.00,VWS V14.01,2013-01-22 14:48:00,
2013-01-22 08:50:00,-13.1,-19.0,30.31,WNW,283,1.0,6.0,74,0.00,,SKC,0.00,VWS V14.01,2013-01-22 14:50:00,
2013-01-22 08:53:00,-16.5,-21.1,30.30,SW,225,2.0,2.0,79,0.00,,SKC,0.00,VWS V14.01,2013-01-22 14:53:00,
2013-01-22 08:58:00,-16.3,-21.1,30.30,WSW,254,1.0,2.0,78,0.00,,SKC,0.00,VWS V14.01,2013-01-22 14:58:00,
2013-01-22 09:00:00,-12.7,-18.9,30.31,WSW,245,2.0,5.0,73,0.00,,SKC,0.00,VWS V14.01,2013-01-22 15:00:00,
2013-01-22 09:04:00,-15.9,-20.7,30.29,SW,234,3.0,3.0,78,0.00,,SKC,0.00,VWS V14.01,2013-01-22 15:04:00,
2013-01-22 09:09:00,-15.6,-20.7,30.29,WNW,286,3.0,5.0,77,0.00,,SKC,0.00,VWS V14.01,2013-01-22 15:09:00,
2013-01-22 09:10:00,-12.2,-18.7,30.31,West,259,5.0,6.0,72,0.00,,SKC,0.00,VWS V14.01,2013-01-22 15:10:00,
2013-01-22 09:14:00,-15.3,-20.4,30.29,WSW,257,2.0,2.0,77,0.00,,SKC,0.00,VWS V14.01,2013-01-22 15:14:00,
2013-01-22 09:15:00,-12.0,-18.7,30.32,West,259,1.0,7.0,71,0.00,,SKC,0.00,VWS V14.01,2013-01-22 15:15:00,
2013-01-22 09:19:00,-14.8,-19.9,30.30,WSW,245,4.0,4.0,77,0.00,,SKC,0.00,VWS V14.01,2013-01-22 15:19:00,
2013-01-22 09:20:00,-11.7,-18.5,30.32,West,264,2.0,5.0,71,0.00,,SKC,0.00,VWS V14.01,2013-01-22 15:20:00,
2013-01-22 09:24:00,-14.5,-19.6,30.30,SW,234,0.0,2.0,77,0.00,,SKC,0.00,VWS V14.01,2013-01-22 15:24:00,
2013-01-22 09:29:00,-14.2,-19.6,30.30,WNW,291,3.0,5.0,76,0.00,,SKC,0.00,VWS V14.01,2013-01-22 15:29:00,
2013-01-22 09:30:00,-10.8,-17.6,30.33,WSW,257,2.0,7.0,71,0.00,,SKC,0.00,VWS V14.01,2013-01-22 15:30:00,
2013-01-22 09:34:00,-14.0,-19.6,30.31,West,281,2.0,4.0,75,0.00,,SKC,0.00,VWS V14.01,2013-01-22 15:34:00,
2013-01-22 09:39:00,-13.8,-19.4,30.31,West,279,0.0,3.0,75,0.00,,SKC,0.00,VWS V14.01,2013-01-22 15:39:00,
2013-01-22 09:40:00,-10.5,-17.8,30.33,WSW,242,3.0,6.0,69,0.00,,SKC,0.00,VWS V14.01,2013-01-22 15:40:00,
2013-01-22 09:44:00,-13.6,-19.5,30.31,West,273,2.0,3.0,74,0.00,,SKC,0.00,VWS V14.01,2013-01-22 15:44:00,
2013-01-22 09:45:00,-10.1,-17.5,30.34,West,263,0.0,6.0,69,0.00,,SKC,0.00,VWS V14.01,2013-01-22 15:45:00,
2013-01-22 09:49:00,-13.3,-18.9,30.31,WNW,292,1.0,6.0,75,0.00,,SKC,0.00,VWS V14.01,2013-01-22 15:49:00,
2013-01-22 09:50:00,-9.6,-17.0,30.34,West,281,3.0,4.0,69,0.00,,SKC,0.00,VWS V14.01,2013-01-22 15:50:00,
2013-01-22 09:54:00,-13.0,-18.9,30.31,WSW,257,4.0,4.0,74,0.00,,SKC,0.00,VWS V14.01,2013-01-22 15:54:00,
2013-01-22 09:55:00,-9.7,-17.6,30.34,West,265,4.0,10.0,67,0.00,,SKC,0.00,VWS V14.01,2013-01-22 15:55:00,
2013-01-22 09:59:00,-12.8,-19.0,30.31,West,262,3.0,3.0,73,0.00,,SKC,0.00,VWS V14.01,2013-01-22 15:59:00,
2013-01-22 10:00:00,-9.5,-17.8,30.33,West,271,3.0,7.0,66,0.00,,SKC,0.00,VWS V14.01,2013-01-22 16:00:00,
2013-01-22 10:04:00,-12.5,-18.7,30.31,West,264,2.0,3.0,73,0.00,,SKC,0.00,VWS V14.01,2013-01-22 16:04:00,
2013-01-22 10:05:00,-8.8,-16.8,30.33,SW,236,3.0,5.0,67,0.00,,SKC,0.00,VWS V14.01,2013-01-22 16:05:00,
2013-01-22 10:09:00,-12.3,-18.8,30.31,WSW,245,2.0,4.0,72,0.00,,SKC,0.00,VWS V14.01,2013-01-22 16:09:00,
2013-01-22 10:14:00,-12.1,-18.6,30.31,WNW,286,6.0,7.0,72,0.00,,SKC,0.00,VWS V14.01,2013-01-22 16:14:00,
2013-01-22 10:15:00,-8.2,-16.8,30.33,WSW,257,1.0,6.0,65,0.00,,SKC,0.00,VWS V14.01,2013-01-22 16:15:00,
2013-01-22 10:19:00,-11.9,-18.6,30.32,WNW,290,3.0,5.0,71,0.00,,SKC,0.00,VWS V14.01,2013-01-22 16:19:00,
2013-01-22 10:24:00,-11.6,-18.4,30.32,WSW,246,2.0,2.0,71,0.00,,SKC,0.00,VWS V14.01,2013-01-22 16:24:00,
2013-01-22 10:25:00,-7.9,-16.5,30.33,West,267,1.0,5.0,65,0.00,,SKC,0.00,VWS V14.01,2013-01-22 16:25:00,
2013-01-22 10:29:00,-11.0,-17.8,30.32,WNW,286,2.0,7.0,71,0.00,,SKC,0.00,VWS V14.01,2013-01-22 16:29:00,
2013-01-22 10:34:00,-10.6,-17.7,30.33,West,266,2.0,5.0,70,0.00,,SKC,0.00,VWS V14.01,2013-01-22 16:34:00,
2013-01-22 10:35:00,-7.6,-16.5,30.32,WSW,248,3.0,5.0,64,0.00,,SKC,0.00,VWS V14.01,2013-01-22 16:35:00,
2013-01-22 10:39:00,-10.6,-17.9,30.33,WSW,245,2.0,6.0,69,0.00,,SKC,0.00,VWS V14.01,2013-01-22 16:39:00,
2013-01-22 10:44:00,-10.3,-17.6,30.33,WNW,287,1.0,6.0,69,0.00,,SKC,0.00,VWS V14.01,2013-01-22 16:44:00,
2013-01-22 10:45:00,-6.8,-15.8,30.32,WNW,282,4.0,4.0,64,0.00,,SKC,0.00,VWS V14.01,2013-01-22 16:45:00,
2013-01-22 10:49:00,-9.9,-17.3,30.34,West,269,2.0,4.0,69,0.00,,SKC,0.00,VWS V14.01,2013-01-22 16:49:00,
2013-01-22 10:50:00,-6.5,-15.8,30.32,WSW,246,4.0,5.0,63,0.00,,SKC,0.00,VWS V14.01,2013-01-22 16:50:00,
2013-01-22 10:54:00,-9.5,-17.2,30.34,WNW,288,6.0,8.0,68,0.00,,SKC,0.00,VWS V14.01,2013-01-22 16:54:00,
2013-01-22 10:55:00,-6.2,-15.5,30.32,SW,225,1.0,5.0,63,0.00,,SKC,0.00,VWS V14.01,2013-01-22 16:55:00,
2013-01-22 10:59:00,-9.6,-17.5,30.34,West,261,5.0,7.0,67,0.00,,SKC,0.00,VWS V14.01,2013-01-22 16:59:00,
2013-01-22 11:04:00,-9.3,-17.3,30.33,WSW,241,3.0,5.0,67,0.00,,SKC,0.00,VWS V14.01,2013-01-22 17:04:00,
2013-01-22 11:05:00,-5.6,-14.9,30.32,WSW,257,5.0,8.0,63,0.00,,SKC,0.00,VWS V14.01,2013-01-22 17:05:00,
2013-01-22 11:09:00,-8.7,-17.0,30.33,WNW,283,3.0,5.0,66,0.00,,SKC,0.00,VWS V14.01,2013-01-22 17:09:00,
2013-01-22 11:14:00,-8.2,-16.5,30.33,WNW,300,2.0,4.0,66,0.00,,SKC,0.00,VWS V14.01,2013-01-22 17:14:00,
2013-01-22 11:15:00,-5.1,-15.1,30.31,WSW,245,4.0,5.0,61,0.00,,SKC,0.00,VWS V14.01,2013-01-22 17:15:00,
2013-01-22 11:19:00,-8.2,-16.8,30.33,WSW,254,2.0,5.0,65,0.00,,SKC,0.00,VWS V14.01,2013-01-22 17:19:00,
2013-01-22 11:20:00,-4.8,-14.8,30.31,WSW,245,1.0,8.0,61,0.00,,SKC,0.00,VWS V14.01,2013-01-22 17:20:00,
2013-01-22 11:24:00,-8.0,-16.6,30.33,West,261,3.0,5.0,65,0.00,,SKC,0.00,VWS V14.01,2013-01-22 17:24:00,
2013-01-22 11:29:00,-7.8,-16.4,30.33,WNW,298,3.0,7.0,65,0.00,,SKC,0.00,VWS V14.01,2013-01-22 17:29:00,
2013-01-22 11:34:00,-7.7,-16.3,30.32,WNW,284,3.0,4.0,65,0.00,,SKC,0.00,VWS V14.01,2013-01-22 17:34:00,
2013-01-22 11:35:00,-3.5,-13.9,30.31,WSW,257,5.0,6.0,60,0.00,,SKC,0.00,VWS V14.01,2013-01-22 17:35:00,
2013-01-22 11:39:00,-7.5,-16.4,30.32,WNW,286,2.0,4.0,64,0.00,,SKC,0.00,VWS V14.01,2013-01-22 17:39:00,
2013-01-22 11:40:00,-3.6,-14.3,30.31,WSW,254,1.0,7.0,59,0.00,,SKC,0.00,VWS V14.01,2013-01-22 17:40:00,
2013-01-22 11:44:00,-7.0,-15.6,30.32,South,176,0.0,4.0,65,0.00,,SKC,0.00,VWS V14.01,2013-01-22 17:44:00,
2013-01-22 11:45:00,-2.7,-13.1,30.29,WNW,300,1.0,3.0,60,0.00,,SKC,0.00,VWS V14.01,2013-01-22 17:45:00,
2013-01-22 11:50:00,-6.6,-15.6,30.32,WNW,293,0.0,4.0,64,0.00,,SKC,0.00,VWS V14.01,2013-01-22 17:50:00,
2013-01-22 11:55:00,-6.2,-15.5,30.32,WSW,252,3.0,4.0,63,0.00,,SKC,0.00,VWS V14.01,2013-01-22 17:55:00,
2013-01-22 12:00:00,-6.1,-15.4,30.32,West,263,2.0,6.0,63,0.00,,SKC,0.00,VWS V14.01,2013-01-22 18:00:00,
2013-01-22 12:05:00,-5.7,-15.0,30.32,NNW,343,3.0,8.0,63,0.00,,SKC,0.00,VWS V14.01,2013-01-22 18:05:00,
2013-01-22 12:10:00,-5.5,-15.1,30.32,WNW,283,4.0,6.0,62,0.00,,SKC,0.00,VWS V14.01,2013-01-22 18:10:00,
2013-01-22 12:15:00,-5.2,-14.9,30.32,West,277,3.0,4.0,62,0.00,,SKC,0.00,VWS V14.01,2013-01-22 18:15:00,
2013-01-22 12:20:00,-5.0,-15.0,30.31,WSW,256,1.0,8.0,61,0.00,,SKC,0.00,VWS V14.01,2013-01-22 18:20:00,
2013-01-22 12:25:00,-4.4,-14.1,30.31,WSW,255,1.0,3.0,62,0.00,,SKC,0.00,VWS V14.01,2013-01-22 18:25:00,
2013-01-22 12:30:00,-4.0,-14.4,30.31,WSW,257,2.0,6.0,60,0.00,,SKC,0.00,VWS V14.01,2013-01-22 18:30:00,
2013-01-22 12:38:00,-3.5,-14.2,30.31,West,259,3.0,7.0,59,0.00,,SKC,0.00,VWS V14.01,2013-01-22 18:38:00,
2013-01-22 12:43:00,-3.5,-14.2,30.31,WSW,250,2.0,2.0,59,0.00,,SKC,0.00,VWS V14.01,2013-01-22 18:43:00,
2013-01-22 12:45:00,-1.7,-13.2,30.29,WSW,250,3.0,5.0,57,0.00,,SKC,0.00,VWS V14.01,2013-01-22 18:45:00,
2013-01-22 12:48:00,-2.6,-13.0,30.29,WSW,248,2.0,2.0,60,0.00,,SKC,0.00,VWS V14.01,2013-01-22 18:48:00,
2013-01-22 12:50:00,-1.7,-13.6,30.29,WNW,299,3.0,4.0,56,0.00,,SKC,0.00,VWS V14.01,2013-01-22 18:50:00,
2013-01-22 12:53:00,-2.4,-13.5,30.29,WNW,289,6.0,6.0,58,0.00,,SKC,0.00,VWS V14.01,2013-01-22 18:53:00,
2013-01-22 12:58:00,-2.6,-13.7,30.29,NNW,338,2.0,4.0,58,0.00,,SKC,0.00,VWS V14.01,2013-01-22 18:58:00,
2013-01-22 13:00:00,-1.9,-13.4,30.29,West,265,3.0,5.0,57,0.00,,SKC,0.00,VWS V14.01,2013-01-22 19:00:00,
2013-01-22 13:03:00,-2.2,-13.0,30.29,West,261,2.0,3.0,59,0.00,,SKC,0.00,VWS V14.01,2013-01-22 19:03:00,
2013-01-22 13:05:00,-1.5,-13.0,30.29,WSW,248,4.0,4.0,57,0.00,,SKC,0.00,VWS V14.01,2013-01-22 19:05:00,
2013-01-22 13:08:00,-2.2,-13.3,30.29,NNW,333,0.0,1.0,58,0.00,,SKC,0.00,VWS V14.01,2013-01-22 19:08:00,
2013-01-22 13:10:00,-1.2,-12.7,30.29,WNW,284,3.0,5.0,57,0.00,,SKC,0.00,VWS V14.01,2013-01-22 19:10:00,
2013-01-22 13:13:00,-1.8,-13.3,30.29,West,269,1.0,3.0,57,0.00,,SKC,0.00,VWS V14.01,2013-01-22 19:13:00,
2013-01-22 13:15:00,-1.1,-13.0,30.29,SW,225,1.0,4.0,56,0.00,,SKC,0.00,VWS V14.01,2013-01-22 19:15:00,
2013-01-22 13:18:00,-1.6,-13.1,30.29,WSW,252,2.0,4.0,57,0.00,,SKC,0.00,VWS V14.01,2013-01-22 19:18:00,
2013-01-22 13:20:00,-1.1,-13.0,30.29,WSW,254,5.0,5.0,56,0.00,,SKC,0.00,VWS V14.01,2013-01-22 19:20:00,
2013-01-22 13:23:00,-1.8,-13.7,30.29,WSW,257,2.0,3.0,56,0.00,,SKC,0.00,VWS V14.01,2013-01-22 19:23:00,
2013-01-22 13:28:00,-2.1,-13.9,30.29,NNE,13,0.0,1.0,56,0.00,,SKC,0.00,VWS V14.01,2013-01-22 19:28:00,
2013-01-22 13:30:00,-1.0,-12.9,30.29,SW,233,2.0,3.0,56,0.00,,SKC,0.00,VWS V14.01,2013-01-22 19:30:00,
2013-01-22 13:33:00,-1.9,-13.1,30.29,West,277,3.0,3.0,58,0.00,,SKC,0.00,VWS V14.01,2013-01-22 19:33:00,
2013-01-22 13:35:00,-1.2,-13.1,30.29,WSW,249,2.0,5.0,56,0.00,,SKC,0.00,VWS V14.01,2013-01-22 19:35:00,
2013-01-22 13:38:00,-1.9,-13.4,30.29,SSE,150,0.0,2.0,57,0.00,,SKC,0.00,VWS V14.01,2013-01-22 19:38:00,
2013-01-22 13:43:00,-1.7,-13.2,30.29,WSW,256,4.0,5.0,57,0.00,,SKC,0.00,VWS V14.01,2013-01-22 19:43:00,
2013-01-22 13:45:00,-1.1,-13.0,30.29,WNW,290,5.0,5.0,56,0.00,,SKC,0.00,VWS V14.01,2013-01-22 19:45:00,
2013-01-22 13:48:00,-1.7,-13.2,30.29,WNW,282,2.0,4.0,57,0.00,,SKC,0.00,VWS V14.01,2013-01-22 19:48:00,
2013-01-22 13:50:00,-1.2,-13.1,30.29,WNW,292,2.0,5.0,56,0.00,,SKC,0.00,VWS V14.01,2013-01-22 19:50:00,
2013-01-22 13:53:00,-1.8,-13.7,30.29,WNW,297,0.0,3.0,56,0.00,,SKC,0.00,VWS V14.01,2013-01-22 19:53:00,
2013-01-22 13:58:00,-2.0,-13.5,30.29,WNW,283,2.0,4.0,57,0.00,,SKC,0.00,VWS V14.01,2013-01-22 19:58:00,
2013-01-22 14:03:00,-1.8,-13.3,30.29,SSE,168,2.0,4.0,57,0.00,,SKC,0.00,VWS V14.01,2013-01-22 20:03:00,
2013-01-22 14:05:00,-0.8,-12.7,30.29,WSW,249,1.0,4.0,56,0.00,,SKC,0.00,VWS V14.01,2013-01-22 20:05:00,
2013-01-22 14:08:00,-1.5,-13.0,30.29,WSW,248,3.0,5.0,57,0.00,,SKC,0.00,VWS V14.01,2013-01-22 20:08:00,
2013-01-22 14:10:00,-0.7,-13.0,30.29,WNW,286,3.0,6.0,55,0.00,,SKC,0.00,VWS V14.01,2013-01-22 20:10:00,
2013-01-22 14:13:00,-1.2,-12.7,30.29,West,261,2.0,4.0,57,0.00,,SKC,0.00,VWS V14.01,2013-01-22 20:13:00,
2013-01-22 14:18:00,-1.1,-13.0,30.29,SSW,208,3.0,3.0,56,0.00,,SKC,0.00,VWS V14.01,2013-01-22 20:18:00,
2013-01-22 14:23:00,-1.1,-13.4,30.29,WNW,292,4.0,6.0,55,0.00,,SKC,0.00,VWS V14.01,2013-01-22 20:23:00,
2013-01-22 14:25:00,-0.3,-12.6,30.29,WSW,241,2.0,5.0,55,0.00,,SKC,0.00,VWS V14.01,2013-01-22 20:25:00,
2013-01-22 14:28:00,-1.1,-13.0,30.29,WNW,286,0.0,3.0,56,0.00,,SKC,0.00,VWS V14.01,2013-01-22 20:28:00,
2013-01-22 14:30:00,-0.5,-12.8,30.29,WSW,244,3.0,4.0,55,0.00,,SKC,0.00,VWS V14.01,2013-01-22 20:30:00,
2013-01-22 14:33:00,-1.0,-12.9,30.29,WSW,257,5.0,5.0,56,0.00,,SKC,0.00,VWS V14.01,2013-01-22 20:33:00,
2013-01-22 14:35:00,-0.6,-12.5,30.29,SW,221,2.0,4.0,56,0.00,,SKC,0.00,VWS V14.01,2013-01-22 20:35:00,
2013-01-22 14:39:00,-1.2,-13.1,30.29,WNW,296,4.0,4.0,56,0.00,,SKC,0.00,VWS V14.01,2013-01-22 20:39:00,
2013-01-22 14:44:00,-1.1,-13.0,30.29,WNW,286,5.0,5.0,56,0.00,,SKC,0.00,VWS V14.01,2013-01-22 20:44:00,
2013-01-22 14:49:00,-1.1,-13.0,30.29,West,259,4.0,5.0,56,0.00,,SKC,0.00,VWS V14.01,2013-01-22 20:49:00,
2013-01-22 14:50:00,-0.9,-12.4,30.29,West,260,3.0,5.0,57,0.00,,SKC,0.00,VWS V14.01,2013-01-22 20:50:00,
2013-01-22 14:54:00,-1.2,-13.1,30.29,WSW,250,2.0,3.0,56,0.00,,SKC,0.00,VWS V14.01,2013-01-22 20:54:00,
2013-01-22 14:55:00,-0.9,-12.4,30.29,WSW,248,1.0,5.0,57,0.00,,SKC,0.00,VWS V14.01,2013-01-22 20:55:00,
2013-01-22 14:59:00,-0.9,-12.5,30.29,SW,218,3.0,4.0,57,0.00,,SKC,0.00,VWS V14.01,2013-01-22 20:59:00,
2013-01-22 15:00:00,-1.0,-12.6,30.29,West,259,2.0,5.0,57,0.00,,SKC,0.00,VWS V14.01,2013-01-22 21:00:00,
2013-01-22 15:04:00,-0.9,-12.8,30.29,NW,307,1.0,4.0,56,0.00,,SKC,0.00,VWS V14.01,2013-01-22 21:04:00,
2013-01-22 15:05:00,-0.9,-12.1,30.29,West,280,1.0,3.0,58,0.00,,SKC,0.00,VWS V14.01,2013-01-22 21:05:00,
2013-01-22 15:09:00,-0.8,-12.7,30.29,WSW,252,3.0,5.0,56,0.00,,SKC,0.00,VWS V14.01,2013-01-22 21:09:00,
2013-01-22 15:10:00,-0.9,-12.1,30.29,WSW,241,2.0,4.0,58,0.00,,SKC,0.00,VWS V14.01,2013-01-22 21:10:00,
2013-01-22 15:14:00,-0.6,-12.5,30.29,WSW,248,1.0,3.0,56,0.00,,SKC,0.00,VWS V14.01,2013-01-22 21:14:00,
2013-01-22 15:15:00,-1.1,-12.6,30.29,WSW,253,4.0,4.0,57,0.00,,SKC,0.00,VWS V14.01,2013-01-22 21:15:00,
2013-01-22 15:19:00,-0.3,-12.2,30.29,WNW,296,2.0,4.0,56,0.00,,SKC,0.00,VWS V14.01,2013-01-22 21:19:00,
2013-01-22 15:20:00,-1.2,-12.4,30.29,West,264,2.0,7.0,58,0.00,,SKC,0.00,VWS V14.01,2013-01-22 21:20:00,
2013-01-22 15:24:00,-0.1,-12.3,30.29,West,265,3.0,5.0,55,0.00,,SKC,0.00,VWS V14.01,2013-01-22 21:24:00,
2013-01-22 15:25:00,-1.5,-12.7,30.29,WSW,257,1.0,6.0,58,0.00,,SKC,0.00,VWS V14.01,2013-01-22 21:25:00,
2013-01-22 15:29:00,-0.4,-12.7,30.29,WNW,287,2.0,4.0,55,0.00,,SKC,0.00,VWS V14.01,2013-01-22 21:29:00,
2013-01-22 15:30:00,-1.8,-13.0,30.29,WSW,246,2.0,3.0,58,0.00,,SKC,0.00,VWS V14.01,2013-01-22 21:30:00,
2013-01-22 15:32:00,-0.5,-12.8,30.29,WSW,240,2.0,4.0,55,0.00,,SKC,0.00,VWS V14.01,2013-01-22 21:32:00,
2013-01-22 15:35:00,-2.2,-13.0,30.29,SW,225,0.0,3.0,59,0.00,,SKC,0.00,VWS V14.01,2013-01-22 21:35:00,
2013-01-22 15:37:00,-0.6,-12.5,30.29,WSW,244,2.0,4.0,56,0.00,,SKC,0.00,VWS V14.01,2013-01-22 21:37:00,
2013-01-22 15:40:00,-2.4,-12.9,30.29,West,259,1.0,4.0,60,0.00,,SKC,0.00,VWS V14.01,2013-01-22 21:40:00,
2013-01-22 15:42:00,-0.6,-12.2,30.29,WSW,248,5.0,6.0,57,0.00,,SKC,0.00,VWS V14.01,2013-01-22 21:42:00,
2013-01-22 15:47:00,-0.9,-12.8,30.29,WSW,254,5.0,5.0,56,0.00,,SKC,0.00,VWS V14.01,2013-01-22 21:47:00,
2013-01-22 15:50:00,-2.8,-12.9,30.29,WSW,253,0.0,1.0,61,0.00,,SKC,0.00,VWS V14.01,2013-01-22 21:50:00,
2013-01-22 15:52:00,-0.9,-12.5,30.29,West,271,3.0,5.0,57,0.00,,SKC,0.00,VWS V14.01,2013-01-22 21:52:00,
2013-01-22 15:57:00,-0.9,-12.5,30.29,West,272,2.0,5.0,57,0.00,,SKC,0.00,VWS V14.01,2013-01-22 21:57:00,
2013-01-22 16:00:00,-3.3,-13.1,30.29,SW,232,0.0,1.0,62,0.00,,SKC,0.00,VWS V14.01,2013-01-22 22:00:00,
2013-01-22 16:02:00,-1.0,-12.6,30.29,West,259,2.0,5.0,57,0.00,,SKC,0.00,VWS V14.01,2013-01-22 22:02:00,
2013-01-22 16:07:00,-0.9,-12.1,30.29,West,280,1.0,3.0,58,0.00,,SKC,0.00,VWS V14.01,2013-01-22 22:07:00,
2013-01-22 16:12:00,-0.9,-12.1,30.29,WSW,241,2.0,4.0,58,0.00,,SKC,0.00,VWS V14.01,2013-01-22 22:12:00,
2013-01-22 16:15:00,-3.6,-13.3,30.30,WSW,254,1.0,2.0,62,0.00,,SKC,0.00,VWS V14.01,2013-01-22 22:15:00,
2013-01-22 16:17:00,-1.1,-12.6,30.29,WSW,253,4.0,4.0,57,0.00,,SKC,0.00,VWS V14.01,2013-01-22 22:17:00,
2013-01-22 16:20:00,-3.7,-13.1,30.30,West,259,0.0,1.0,63,0.00,,SKC,0.00,VWS V14.01,2013-01-22 22:20:00,
2013-01-22 16:22:00,-1.2,-12.4,30.29,WSW,250,3.0,3.0,58,0.00,,SKC,0.00,VWS V14.01,2013-01-22 22:22:00,
2013-01-22 16:25:00,-3.8,-13.2,30.30,WSW,254,0.0,2.0,63,0.00,,SKC,0.00,VWS V14.01,2013-01-22 22:25:00,
2013-01-22 16:27:00,-1.5,-12.7,30.29,WSW,239,2.0,2.0,58,0.00,,SKC,0.00,VWS V14.01,2013-01-22 22:27:00,
2013-01-22 16:30:00,-3.9,-13.0,30.29,WSW,252,0.0,1.0,64,0.00,,SKC,0.00,VWS V14.01,2013-01-22 22:30:00,
2013-01-22 16:32:00,-1.8,-13.0,30.29,WSW,252,3.0,3.0,58,0.00,,SKC,0.00,VWS V14.01,2013-01-22 22:32:00,
2013-01-22 16:35:00,-4.0,-13.1,30.29,West,267,1.0,2.0,64,0.00,,SKC,0.00,VWS V14.01,2013-01-22 22:35:00,
2013-01-22 16:37:00,-2.1,-12.9,30.29,SW,226,0.0,0.0,59,0.00,,SKC,0.00,VWS V14.01,2013-01-22 22:37:00,
2013-01-22 16:40:00,-3.9,-13.0,30.29,West,259,1.0,2.0,64,0.00,,SKC,0.00,VWS V14.01,2013-01-22 22:40:00,
2013-01-22 16:42:00,-2.4,-12.9,30.29,West,259,1.0,1.0,60,0.00,,SKC,0.00,VWS V14.01,2013-01-22 22:42:00,
2013-01-22 16:45:00,-3.9,-13.0,30.28,WSW,248,1.0,2.0,64,0.00,,SKC,0.00,VWS V14.01,2013-01-22 22:45:00,
2013-01-22 16:47:00,-2.6,-12.7,30.29,WSW,257,0.0,1.0,61,0.00,,SKC,0.00,VWS V14.01,2013-01-22 22:47:00,
2013-01-22 16:50:00,-4.0,-13.1,30.28,WSW,256,1.0,3.0,64,0.00,,SKC,0.00,VWS V14.01,2013-01-22 22:50:00,
2013-01-22 16:52:00,-2.8,-12.9,30.29,WSW,253,0.0,0.0,61,0.00,,SKC,0.00,VWS V14.01,2013-01-22 22:52:00,
2013-01-22 16:57:00,-3.0,-13.1,30.29,WSW,254,0.0,0.0,61,0.00,,SKC,0.00,VWS V14.01,2013-01-22 22:57:00,
2013-01-22 17:00:00,-4.0,-12.8,30.28,WSW,254,1.0,2.0,65,0.00,,SKC,0.00,VWS V14.01,2013-01-22 23:00:00,
2013-01-22 17:02:00,-3.3,-13.1,30.29,WSW,254,3.0,3.0,62,0.00,,SKC,0.00,VWS V14.01,2013-01-22 23:02:00,
2013-01-22 17:05:00,-4.1,-12.9,30.28,WSW,245,1.0,2.0,65,0.00,,SKC,0.00,VWS V14.01,2013-01-22 23:05:00,
2013-01-22 17:07:00,-3.4,-13.1,30.29,West,263,1.0,1.0,62,0.00,,SKC,0.00,VWS V14.01,2013-01-22 23:07:00,
2013-01-22 17:10:00,-4.3,-13.1,30.28,WSW,256,0.0,2.0,65,0.00,,SKC,0.00,VWS V14.01,2013-01-22 23:10:00,
2013-01-22 17:12:00,-3.6,-13.3,30.29,WSW,256,0.0,0.0,62,0.00,,SKC,0.00,VWS V14.01,2013-01-22 23:12:00,
2013-01-22 17:15:00,-4.4,-13.2,30.28,West,274,0.0,2.0,65,0.00,,SKC,0.00,VWS V14.01,2013-01-22 23:15:00,
2013-01-22 17:17:00,-3.6,-13.3,30.30,WSW,254,0.0,1.0,62,0.00,,SKC,0.00,VWS V14.01,2013-01-22 23:17:00,
2013-01-22 17:20:00,-4.4,-13.2,30.28,WNW,286,3.0,3.0,65,0.00,,SKC,0.00,VWS V14.01,2013-01-22 23:20:00,
2013-01-22 17:23:00,-3.7,-13.1,30.30,West,261,1.0,1.0,63,0.00,,SKC,0.00,VWS V14.01,2013-01-22 23:23:00,
2013-01-22 17:25:00,-4.4,-13.2,30.28,WSW,256,0.0,3.0,65,0.00,,SKC,0.00,VWS V14.01,2013-01-22 23:25:00,
2013-01-22 17:28:00,-3.8,-13.2,30.30,WSW,254,0.0,0.0,63,0.00,,SKC,0.00,VWS V14.01,2013-01-22 23:28:00,
2013-01-22 17:30:00,-4.4,-12.9,30.28,WSW,257,3.0,3.0,66,0.00,,SKC,0.00,VWS V14.01,2013-01-22 23:30:00,
2013-01-22 17:33:00,-3.9,-13.0,30.29,WSW,253,0.0,1.0,64,0.00,,SKC,0.00,VWS V14.01,2013-01-22 23:33:00,
2013-01-22 17:35:00,-4.5,-12.9,30.28,WSW,238,2.0,3.0,66,0.00,,SKC,0.00,VWS V14.01,2013-01-22 23:35:00,
2013-01-22 17:38:00,-4.0,-13.1,30.29,WSW,250,1.0,1.0,64,0.00,,SKC,0.00,VWS V14.01,2013-01-22 23:38:00,
2013-01-22 17:43:00,-3.9,-13.0,30.29,WSW,257,1.0,1.0,64,0.00,,SKC,0.00,VWS V14.01,2013-01-22 23:43:00,
2013-01-22 17:45:00,-4.4,-12.9,30.29,WSW,239,2.0,4.0,66,0.00,,SKC,0.00,VWS V14.01,2013-01-22 23:45:00,
2013-01-22 17:48:00,-3.9,-13.0,30.28,West,277,1.0,3.0,64,0.00,,SKC,0.00,VWS V14.01,2013-01-22 23:48:00,
2013-01-22 17:50:00,-4.4,-13.2,30.29,WNW,292,2.0,4.0,65,0.00,,SKC,0.00,VWS V14.01,2013-01-22 23:50:00,
2013-01-22 17:53:00,-4.0,-13.1,30.28,WSW,248,1.0,2.0,64,0.00,,SKC,0.00,VWS V14.01,2013-01-22 23:53:00,
2013-01-22 17:55:00,-4.4,-13.2,30.29,WSW,237,3.0,5.0,65,0.00,,SKC,0.00,VWS V14.01,2013-01-22 23:55:00,
2013-01-22 17:58:00,-4.0,-12.8,30.28,WSW,251,1.0,2.0,65,0.00,,SKC,0.00,VWS V14.01,2013-01-22 23:58:00,
2013-01-22 18:00:00,-4.4,-13.2,30.29,West,259,1.0,8.0,65,0.00,,SKC,0.00,VWS V14.01,2013-01-23 00:00:00,
2013-01-22 18:03:00,-4.0,-12.8,30.28,WSW,245,1.0,2.0,65,0.00,,SKC,0.00,VWS V14.01,2013-01-23 00:03:00,
2013-01-22 18:05:00,-4.5,-13.3,30.29,West,273,1.0,7.0,65,0.00,,SKC,0.00,VWS V14.01,2013-01-23 00:05:00,
2013-01-22 18:08:00,-4.2,-13.0,30.28,West,259,1.0,1.0,65,0.00,,SKC,0.00,VWS V14.01,2013-01-23 00:08:00,
2013-01-22 18:10:00,-4.5,-12.9,30.29,West,279,2.0,4.0,66,0.00,,SKC,0.00,VWS V14.01,2013-01-23 00:10:00,
2013-01-22 18:13:00,-4.3,-13.1,30.28,WSW,256,1.0,1.0,65,0.00,,SKC,0.00,VWS V14.01,2013-01-23 00:13:00,
2013-01-22 18:15:00,-4.6,-13.1,30.28,West,276,4.0,6.0,66,0.00,,SKC,0.00,VWS V14.01,2013-01-23 00:15:00,
2013-01-22 18:18:00,-4.3,-13.1,30.28,West,268,1.0,1.0,65,0.00,,SKC,0.00,VWS V14.01,2013-01-23 00:18:00,
2013-01-22 18:20:00,-4.7,-13.1,30.28,West,265,2.0,5.0,66,0.00,,SKC,0.00,VWS V14.01,2013-01-23 00:20:00,
2013-01-22 18:23:00,-4.4,-13.2,30.28,West,261,0.0,3.0,65,0.00,,SKC,0.00,VWS V14.01,2013-01-23 00:23:00,
2013-01-22 18:25:00,-4.8,-13.2,30.28,WNW,286,3.0,6.0,66,0.00,,SKC,0.00,VWS V14.01,2013-01-23 00:25:00,
2013-01-22 18:28:00,-4.4,-13.2,30.28,WSW,257,0.0,1.0,65,0.00,,SKC,0.00,VWS V14.01,2013-01-23 00:28:00,
2013-01-22 18:33:00,-4.5,-13.0,30.28,West,271,3.0,3.0,66,0.00,,SKC,0.00,VWS V14.01,2013-01-23 00:33:00,
2013-01-22 18:35:00,-5.0,-13.4,30.28,WNW,287,3.0,7.0,66,0.00,,SKC,0.00,VWS V14.01,2013-01-23 00:35:00,
2013-01-22 18:38:00,-4.5,-13.0,30.28,WSW,250,3.0,3.0,66,0.00,,SKC,0.00,VWS V14.01,2013-01-23 00:38:00,
2013-01-22 18:40:00,-5.1,-13.2,30.28,WNW,296,2.0,8.0,67,0.00,,SKC,0.00,VWS V14.01,2013-01-23 00:40:00,
2013-01-22 18:43:00,-4.5,-13.0,30.28,WNW,283,1.0,2.0,66,0.00,,SKC,0.00,VWS V14.01,2013-01-23 00:43:00,
2013-01-22 18:48:00,-4.4,-12.9,30.29,West,261,2.0,3.0,66,0.00,,SKC,0.00,VWS V14.01,2013-01-23 00:48:00,
2013-01-22 18:50:00,-5.4,-13.5,30.27,WSW,251,4.0,5.0,67,0.00,,SKC,0.00,VWS V14.01,2013-01-23 00:50:00,
2013-01-22 18:53:00,-4.4,-13.2,30.29,West,260,2.0,3.0,65,0.00,,SKC,0.00,VWS V14.01,2013-01-23 00:53:00,
2013-01-22 18:55:00,-5.5,-13.6,30.27,WNW,284,3.0,6.0,67,0.00,,SKC,0.00,VWS V14.01,2013-01-23 00:55:00,
2013-01-22 18:58:00,-4.4,-13.2,30.29,WSW,256,4.0,5.0,65,0.00,,SKC,0.00,VWS V14.01,2013-01-23 00:58:00,
2013-01-22 19:00:00,-5.6,-13.7,30.27,West,269,2.0,9.0,67,0.00,,SKC,0.00,VWS V14.01,2013-01-23 01:00:00,
2013-01-22 19:03:00,-4.4,-13.2,30.29,West,265,1.0,2.0,65,0.00,,SKC,0.00,VWS V14.01,2013-01-23 01:03:00,
2013-01-22 19:05:00,-5.8,-13.6,30.27,WSW,256,4.0,5.0,68,0.00,,SKC,0.00,VWS V14.01,2013-01-23 01:05:00,
2013-01-22 19:08:00,-4.5,-13.3,30.29,WSW,256,3.0,3.0,65,0.00,,SKC,0.00,VWS V14.01,2013-01-23 01:08:00,
2013-01-22 19:10:00,-5.9,-13.7,30.27,West,278,5.0,7.0,68,0.00,,SKC,0.00,VWS V14.01,2013-01-23 01:10:00,
2013-01-22 19:13:00,-4.5,-12.7,30.29,WNW,285,3.0,5.0,67,0.00,,SKC,0.00,VWS V14.01,2013-01-23 01:13:00,
2013-01-22 19:15:00,-6.0,-13.8,30.27,West,265,5.0,5.0,68,0.00,,SKC,0.00,VWS V14.01,2013-01-23 01:15:00,
2013-01-22 19:18:00,-4.6,-13.1,30.28,West,262,3.0,5.0,66,0.00,,SKC,0.00,VWS V14.01,2013-01-23 01:18:00,
2013-01-22 19:23:00,-4.7,-13.1,30.28,WNW,286,3.0,6.0,66,0.00,,SKC,0.00,VWS V14.01,2013-01-23 01:23:00,
2013-01-22 19:28:00,-4.8,-13.2,30.28,WSW,248,3.0,5.0,66,0.00,,SKC,0.00,VWS V14.01,2013-01-23 01:28:00,
2013-01-22 19:30:00,-6.4,-13.9,30.27,West,259,3.0,4.0,69,0.00,,SKC,0.00,VWS V14.01,2013-01-23 01:30:00,
2013-01-22 19:33:00,-4.9,-13.3,30.28,West,277,1.0,6.0,66,0.00,,SKC,0.00,VWS V14.01,2013-01-23 01:33:00,
2013-01-22 19:35:00,-6.6,-14.1,30.27,West,264,4.0,5.0,69,0.00,,SKC,0.00,VWS V14.01,2013-01-23 01:35:00,
2013-01-22 19:38:00,-5.0,-13.4,30.28,WNW,286,5.0,5.0,66,0.00,,SKC,0.00,VWS V14.01,2013-01-23 01:38:00,
2013-01-22 19:40:00,-6.7,-14.2,30.27,West,277,2.0,9.0,69,0.00,,SKC,0.00,VWS V14.01,2013-01-23 01:40:00,
2013-01-22 19:43:00,-5.2,-13.3,30.28,West,279,2.0,2.0,67,0.00,,SKC,0.00,VWS V14.01,2013-01-23 01:43:00,
2013-01-22 19:45:00,-6.8,-14.3,30.27,WSW,254,1.0,6.0,69,0.00,,SKC,0.00,VWS V14.01,2013-01-23 01:45:00,
2013-01-22 19:48:00,-5.3,-13.4,30.27,WSW,249,0.0,0.0,67,0.00,,SKC,0.00,VWS V14.01,2013-01-23 01:48:00,
2013-01-22 19:53:00,-5.4,-13.5,30.27,WNW,286,2.0,5.0,67,0.00,,SKC,0.00,VWS V14.01,2013-01-23 01:53:00,
2013-01-22 19:58:00,-5.6,-13.7,30.27,West,277,2.0,4.0,67,0.00,,SKC,0.00,VWS V14.01,2013-01-23 01:58:00,
2013-01-22 20:00:00,-7.2,-14.4,30.27,WSW,242,2.0,5.0,70,0.00,,SKC,0.00,VWS V14.01,2013-01-23 02:00:00,
2013-01-22 20:03:00,-5.7,-13.8,30.27,West,273,1.0,3.0,67,0.00,,SKC,0.00,VWS V14.01,2013-01-23 02:03:00,
2013-01-22 20:05:00,-7.3,-14.2,30.27,West,260,1.0,6.0,71,0.00,,SKC,0.00,VWS V14.01,2013-01-23 02:05:00,
2013-01-22 20:08:00,-5.8,-13.6,30.27,WNW,282,4.0,5.0,68,0.00,,SKC,0.00,VWS V14.01,2013-01-23 02:08:00,
2013-01-22 20:10:00,-7.4,-14.3,30.27,West,265,4.0,4.0,71,0.00,,SKC,0.00,VWS V14.01,2013-01-23 02:10:00,
2013-01-22 20:13:00,-5.9,-13.7,30.27,SW,233,2.0,5.0,68,0.00,,SKC,0.00,VWS V14.01,2013-01-23 02:13:00,
2013-01-22 20:15:00,-7.5,-14.4,30.26,West,263,3.0,4.0,71,0.00,,SKC,0.00,VWS V14.01,2013-01-23 02:15:00,
2013-01-22 20:18:00,-6.1,-13.9,30.27,WNW,286,4.0,7.0,68,0.00,,SKC,0.00,VWS V14.01,2013-01-23 02:18:00,
2013-01-22 20:20:00,-7.7,-14.6,30.26,WNW,294,3.0,5.0,71,0.00,,SKC,0.00,VWS V14.01,2013-01-23 02:20:00,
2013-01-22 20:23:00,-6.2,-14.0,30.27,WSW,252,5.0,5.0,68,0.00,,SKC,0.00,VWS V14.01,2013-01-23 02:23:00,
2013-01-22 20:25:00,-7.8,-14.4,30.26,West,259,2.0,7.0,72,0.00,,SKC,0.00,VWS V14.01,2013-01-23 02:25:00,
2013-01-22 20:28:00,-6.3,-14.1,30.27,West,264,1.0,3.0,68,0.00,,SKC,0.00,VWS V14.01,2013-01-23 02:28:00,
2013-01-22 20:30:00,-7.9,-14.5,30.27,WSW,252,2.0,6.0,72,0.00,,SKC,0.00,VWS V14.01,2013-01-23 02:30:00,
2013-01-22 20:34:00,-6.5,-14.0,30.27,WNW,288,2.0,5.0,69,0.00,,SKC,0.00,VWS V14.01,2013-01-23 02:34:00,
2013-01-22 20:39:00,-6.6,-14.1,30.27,West,259,3.0,9.0,69,0.00,,SKC,0.00,VWS V14.01,2013-01-23 02:39:00,
2013-01-22 20:40:00,-8.2,-14.8,30.27,West,272,1.0,3.0,72,0.00,,SKC,0.00,VWS V14.01,2013-01-23 02:40:00,
2013-01-22 20:43:00,-6.7,-14.2,30.27,West,261,5.0,5.0,69,0.00,,SKC,0.00,VWS V14.01,2013-01-23 02:43:00,
2013-01-22 20:45:00,-8.3,-14.6,30.26,WSW,242,0.0,3.0,73,0.00,,SKC,0.00,VWS V14.01,2013-01-23 02:45:00,
2013-01-22 20:49:00,-6.9,-14.1,30.27,SW,236,2.0,2.0,70,0.00,,SKC,0.00,VWS V14.01,2013-01-23 02:49:00,
2013-01-22 20:50:00,-8.6,-14.9,30.26,West,264,2.0,3.0,73,0.00,,SKC,0.00,VWS V14.01,2013-01-23 02:50:00,
2013-01-22 20:54:00,-7.0,-14.2,30.27,West,264,2.0,4.0,70,0.00,,SKC,0.00,VWS V14.01,2013-01-23 02:54:00,
2013-01-22 20:55:00,-8.7,-15.0,30.26,WSW,253,1.0,4.0,73,0.00,,SKC,0.00,VWS V14.01,2013-01-23 02:55:00,
2013-01-22 20:59:00,-7.2,-14.4,30.27,WSW,256,1.0,3.0,70,0.00,,SKC,0.00,VWS V14.01,2013-01-23 02:59:00,
2013-01-22 21:00:00,-8.8,-14.8,30.26,West,263,1.0,3.0,74,0.00,,SKC,0.00,VWS V14.01,2013-01-23 03:00:00,
2013-01-22 21:04:00,-7.2,-14.4,30.27,WNW,300,2.0,3.0,70,0.00,,SKC,0.00,VWS V14.01,2013-01-23 03:04:00,
2013-01-22 21:05:00,-9.0,-15.0,30.26,WSW,253,1.0,2.0,74,0.00,,SKC,0.00,VWS V14.01,2013-01-23 03:05:00,
2013-01-22 21:09:00,-7.4,-14.3,30.27,WSW,246,4.0,4.0,71,0.00,,SKC,0.00,VWS V14.01,2013-01-23 03:09:00,
2013-01-22 21:10:00,-9.2,-15.2,30.26,WSW,249,1.0,1.0,74,0.00,,SKC,0.00,VWS V14.01,2013-01-23 03:10:00,
2013-01-22 21:14:00,-7.4,-14.3,30.27,WSW,248,2.0,4.0,71,0.00,,SKC,0.00,VWS V14.01,2013-01-23 03:14:00,
2013-01-22 21:15:00,-9.3,-15.3,30.26,WSW,253,0.0,2.0,74,0.00,,SKC,0.00,VWS V14.01,2013-01-23 03:15:00,
2013-01-22 21:19:00,-7.6,-14.5,30.26,West,265,3.0,5.0,71,0.00,,SKC,0.00,VWS V14.01,2013-01-23 03:19:00,
2013-01-22 21:20:00,-9.5,-15.2,30.26,West,269,1.0,3.0,75,0.00,,SKC,0.00,VWS V14.01,2013-01-23 03:20:00,
2013-01-22 21:24:00,-7.7,-14.6,30.26,West,264,1.0,3.0,71,0.00,,SKC,0.00,VWS V14.01,2013-01-23 03:24:00,
2013-01-22 21:25:00,-9.5,-15.2,30.26,West,259,0.0,3.0,75,0.00,,SKC,0.00,VWS V14.01,2013-01-23 03:25:00,
2013-01-22 21:29:00,-7.9,-14.5,30.26,West,259,3.0,6.0,72,0.00,,SKC,0.00,VWS V14.01,2013-01-23 03:29:00,
2013-01-22 21:30:00,-9.5,-15.2,30.26,West,260,2.0,3.0,75,0.00,,SKC,0.00,VWS V14.01,2013-01-23 03:30:00,
2013-01-22 21:34:00,-8.0,-14.6,30.27,West,281,1.0,2.0,72,0.00,,SKC,0.00,VWS V14.01,2013-01-23 03:34:00,
2013-01-22 21:35:00,-9.6,-15.4,30.26,WSW,254,1.0,2.0,75,0.00,,SKC,0.00,VWS V14.01,2013-01-23 03:35:00,
2013-01-22 21:39:00,-8.1,-14.7,30.27,WSW,254,1.0,2.0,72,0.00,,SKC,0.00,VWS V14.01,2013-01-23 03:39:00,
2013-01-22 21:40:00,-9.7,-15.4,30.26,WNW,288,3.0,3.0,75,0.00,,SKC,0.00,VWS V14.01,2013-01-23 03:40:00,
2013-01-22 21:44:00,-8.2,-14.5,30.27,WSW,252,1.0,3.0,73,0.00,,SKC,0.00,VWS V14.01,2013-01-23 03:44:00,
2013-01-22 21:45:00,-9.7,-15.4,30.27,West,281,2.0,3.0,75,0.00,,SKC,0.00,VWS V14.01,2013-01-23 03:45:00,
2013-01-22 21:49:00,-8.3,-14.6,30.26,WSW,242,0.0,1.0,73,0.00,,SKC,0.00,VWS V14.01,2013-01-23 03:49:00,
2013-01-22 21:50:00,-9.8,-15.3,30.27,West,259,1.0,3.0,76,0.00,,SKC,0.00,VWS V14.01,2013-01-23 03:50:00,
2013-01-22 21:54:00,-8.6,-14.9,30.26,WSW,245,1.0,3.0,73,0.00,,SKC,0.00,VWS V14.01,2013-01-23 03:54:00,
2013-01-22 21:55:00,-9.8,-15.3,30.27,West,272,2.0,3.0,76,0.00,,SKC,0.00,VWS V14.01,2013-01-23 03:55:00,
2013-01-22 21:59:00,-8.7,-14.7,30.26,WSW,249,2.0,2.0,74,0.00,,SKC,0.00,VWS V14.01,2013-01-23 03:59:00,
2013-01-22 22:00:00,-9.7,-15.2,30.26,WSW,246,2.0,4.0,76,0.00,,SKC,0.00,VWS V14.01,2013-01-23 04:00:00,
2013-01-22 22:04:00,-8.9,-14.9,30.26,WSW,248,1.0,1.0,74,0.00,,SKC,0.00,VWS V14.01,2013-01-23 04:04:00,
2013-01-22 22:05:00,-9.7,-15.2,30.26,West,277,1.0,4.0,76,0.00,,SKC,0.00,VWS V14.01,2013-01-23 04:05:00,
2013-01-22 22:09:00,-9.1,-15.1,30.26,WSW,254,1.0,1.0,74,0.00,,SKC,0.00,VWS V14.01,2013-01-23 04:09:00,
2013-01-22 22:10:00,-9.8,-15.3,30.26,WSW,252,0.0,5.0,76,0.00,,SKC,0.00,VWS V14.01,2013-01-23 04:10:00,
2013-01-22 22:14:00,-9.2,-15.2,30.26,WSW,249,1.0,1.0,74,0.00,,SKC,0.00,VWS V14.01,2013-01-23 04:14:00,
2013-01-22 22:15:00,-9.8,-15.3,30.26,WNW,286,3.0,4.0,76,0.00,,SKC,0.00,VWS V14.01,2013-01-23 04:15:00,
2013-01-22 22:19:00,-9.4,-15.4,30.26,WSW,256,3.0,3.0,74,0.00,,SKC,0.00,VWS V14.01,2013-01-23 04:19:00,
2013-01-22 22:20:00,-9.9,-15.4,30.26,WSW,254,0.0,3.0,76,0.00,,SKC,0.00,VWS V14.01,2013-01-23 04:20:00,
2013-01-22 22:24:00,-9.5,-15.2,30.26,West,278,1.0,3.0,75,0.00,,SKC,0.00,VWS V14.01,2013-01-23 04:24:00,
2013-01-22 22:29:00,-9.5,-15.2,30.26,WSW,254,2.0,3.0,75,0.00,,SKC,0.00,VWS V14.01,2013-01-23 04:29:00,
2013-01-22 22:30:00,-10.0,-15.5,30.26,WSW,246,1.0,2.0,76,0.00,,SKC,0.00,VWS V14.01,2013-01-23 04:30:00,
2013-01-22 22:34:00,-9.6,-15.4,30.26,West,260,1.0,2.0,75,0.00,,SKC,0.00,VWS V14.01,2013-01-23 04:34:00,
2013-01-22 22:35:00,-10.2,-15.4,30.26,WSW,246,0.0,1.0,77,0.00,,SKC,0.00,VWS V14.01,2013-01-23 04:35:00,
2013-01-22 22:39:00,-9.6,-15.4,30.26,West,259,1.0,3.0,75,0.00,,SKC,0.00,VWS V14.01,2013-01-23 04:39:00,
2013-01-22 22:40:00,-10.4,-15.6,30.26,WSW,246,0.0,0.0,77,0.00,,SKC,0.00,VWS V14.01,2013-01-23 04:40:00,
2013-01-22 22:44:00,-9.7,-15.4,30.26,WSW,244,0.0,3.0,75,0.00,,SKC,0.00,VWS V14.01,2013-01-23 04:44:00,
2013-01-22 22:45:00,-10.6,-15.8,30.25,WSW,238,1.0,1.0,77,0.00,,SKC,0.00,VWS V14.01,2013-01-23 04:45:00,
2013-01-22 22:49:00,-9.7,-15.4,30.27,WSW,257,2.0,3.0,75,0.00,,SKC,0.00,VWS V14.01,2013-01-23 04:49:00,
2013-01-22 22:50:00,-10.8,-15.7,30.25,WSW,238,0.0,1.0,78,0.00,,SKC,0.00,VWS V14.01,2013-01-23 04:50:00,
2013-01-22 22:54:00,-9.8,-15.3,30.27,WSW,254,1.0,2.0,76,0.00,,SKC,0.00,VWS V14.01,2013-01-23 04:54:00,
2013-01-22 22:55:00,-11.0,-15.9,30.25,SW,233,0.0,1.0,78,0.00,,SKC,0.00,VWS V14.01,2013-01-23 04:55:00,
2013-01-22 22:59:00,-9.8,-15.3,30.27,SW,236,3.0,4.0,76,0.00,,SKC,0.00,VWS V14.01,2013-01-23 04:59:00,
2013-01-22 23:00:00,-9.7,-15.2,30.27,West,265,1.0,4.0,76,0.00,,SKC,0.00,VWS V14.01,2013-01-23 05:00:00,
2013-01-22 23:01:00,-9.7,-15.2,30.27,West,263,3.0,4.0,76,0.00,,SKC,0.00,VWS V14.01,2013-01-23 05:01:00,
2013-01-22 23:03:00,-9.7,-15.2,30.26,WSW,241,2.0,2.0,76,0.00,,SKC,0.00,VWS V14.01,2013-01-23 05:03:00,
2013-01-22 23:08:00,-9.7,-15.2,30.26,West,269,1.0,1.0,76,0.00,,SKC,0.00,VWS V14.01,2013-01-23 05:08:00,
2013-01-22 23:13:00,-9.8,-15.3,30.26,West,264,2.0,2.0,76,0.00,,SKC,0.00,VWS V14.01,2013-01-23 05:13:00,
2013-01-22 23:18:00,-9.8,-15.3,30.26,West,264,2.0,3.0,76,0.00,,SKC,0.00,VWS V14.01,2013-01-23 05:18:00,
2013-01-22 23:20:00,-11.8,-16.5,30.24,SSW,198,0.0,0.0,79,0.00,,SKC,0.00,VWS V14.01,2013-01-23 05:20:00,
2013-01-22 23:23:00,-9.9,-15.4,30.26,West,259,1.0,2.0,76,0.00,,SKC,0.00,VWS V14.01,2013-01-23 05:23:00,
2013-01-22 23:28:00,-9.9,-15.4,30.26,SW,236,1.0,2.0,76,0.00,,SKC,0.00,VWS V14.01,2013-01-23 05:28:00,
2013-01-22 23:30:00,-12.0,-16.7,30.24,SSW,198,0.0,0.0,79,0.00,,SKC,0.00,VWS V14.01,2013-01-23 05:30:00,
2013-01-22 23:33:00,-10.1,-15.6,30.26,WSW,246,0.0,1.0,76,0.00,,SKC,0.00,VWS V14.01,2013-01-23 05:33:00,
2013-01-22 23:35:00,-12.2,-16.9,30.24,SSW,198,0.0,0.0,79,0.00,,SKC,0.00,VWS V14.01,2013-01-23 05:35:00,
2013-01-22 23:38:00,-10.2,-15.4,30.26,WSW,246,0.0,0.0,77,0.00,,SKC,0.00,VWS V14.01,2013-01-23 05:38:00,
2013-01-22 23:40:00,-12.3,-16.7,30.24,SSW,198,0.0,0.0,80,0.00,,SKC,0.00,VWS V14.01,2013-01-23 05:40:00,
2013-01-22 23:43:00,-10.4,-15.6,30.26,WSW,246,0.0,0.0,77,0.00,,SKC,0.00,VWS V14.01,2013-01-23 05:43:00,
2013-01-22 23:45:00,-12.4,-16.8,30.23,SSW,198,0.0,0.0,80,0.00,,SKC,0.00,VWS V14.01,2013-01-23 05:45:00,
2013-01-22 23:48:00,-10.7,-15.9,30.25,WSW,238,0.0,1.0,77,0.00,,SKC,0.00,VWS V14.01,2013-01-23 05:48:00,
2013-01-22 23:50:00,-12.6,-17.0,30.23,SSW,198,0.0,0.0,80,0.00,,SKC,0.00,VWS V14.01,2013-01-23 05:50:00,
2013-01-22 23:53:00,-10.9,-15.8,30.25,WSW,240,0.0,1.0,78,0.00,,SKC,0.00,VWS V14.01,2013-01-23 05:53:00,
2013-01-22 23:58:00,-11.1,-16.0,30.25,SW,233,0.0,0.0,78,0.00,,SKC,0.00,VWS V14.01,2013-01-23 05:58:00,